BEIDOU-2 G7

Last updated on Sept. 30, 2020, 5:50 a.m. UTC

1 41586U 16037A   20273.66178281 -.00000370  00000-0  00000-0 0  9995
2 41586   1.7032  67.0277 0007214   4.5928 285.8911  1.00265510 15864
UTC
Height (km)
Latitude
Longitude
Inclination
Orbital Period
UTC large
Height (km)
Speed (km/s)
/
Latitude / Longitude
Inclination (degrees)
Orbital Period (minutes)
Azimuth
Elevation
Range (km)
Doppler Factor
iOS Compass Heading
iOS Angle

Next 30 passes for location: Hong Kong

Rise time Rise Azimuth (degrees) Set time Set Azimuth (degrees) Duration Max altitude (degrees)

No matching passes for this satellites